FW7711 Weather Reports


time (UTC)temp
C
wind
direction
speed
KPH
gust
KPH
rain 1hr
cm
rain 24hr
cm
rain mn
cm
humidity
%
barometer
mb
20240723211556 24 0.0 0.0 0.00 0.61 0.00 70 1018.0
20240723210101 24 0.0 0.0 0.00 0.61 0.00 72 1017.8
20240723204601 24 0.0 0.0 0.00 0.61 0.00 71 1017.8
20240723203100 24 0.0 0.0 0.00 0.61 0.00 70 1017.5
20240723201556 25 0.0 0.0 0.00 0.61 0.00 73 1017.6
20240723200056 25 0.0 0.0 0.00 0.61 0.00 70 1017.6
20240723194556 24 0.0 0.0 0.00 0.61 0.00 76 1017.4
20240723193059 24 0.0 0.0 0.00 0.61 0.00 76 1017.5
20240723191559 23 0.0 0.0 0.00 0.61 0.00 74 1017.3
20240723190058 23 0.0 0.0 0.00 0.61 0.00 75 1017.5
20240723184601 24 0.0 0.0 0.00 0.61 0.00 75 1017.6
20240723183058 23 0.0 0.0 0.00 0.61 0.00 79 1017.6
20240723181556 23 0.0 0.0 0.00 0.61 0.00 78 1017.6
20240723180059 22 0.0 0.0 0.00 0.61 0.00 82 1017.7
20240723174608 22 0.0 0.0 0.00 0.61 0.00 83 1017.7
20240723173059 22 0.0 0.0 0.00 0.61 0.00 84 1017.7
20240723171606 22 0.0 0.0 0.00 0.61 0.00 87 1017.6
20240723170110 21 0.0 0.0 0.00 0.61 0.00 89 1017.7
20240723164601 20 0.0 0.0 0.00 0.61 0.00 93 1017.6
20240723163059 19 0.0 0.0 0.00 0.61 0.00 93 1017.4
20240723161558 19 0.0 0.0 0.00 0.61 0.00 95 1017.8
20240723160056 18 0.0 0.0 0.00 0.61 0.00 95 1018.1
20240723154608 18 0.0 0.0 0.00 0.61 0.00 95 1018.2
20240723153058 18 0.0 0.0 0.00 0.61 0.00 96 1018.1
20240723151602 18 0.0 0.0 0.00 0.61 0.00 96 1017.8
20240723150058 18 0.0 0.0 0.00 0.61 0.00 97 1017.8
20240723144557 18 0.0 0.0 0.00 0.61 0.00 97 1017.7
20240723143058 18 0.0 0.0 0.00 0.61 0.00 97 1017.6
20240723141556 18 0.0 0.0 0.00 0.61 0.00 97 1017.6
20240723140057 18 0.0 0.0 0.00 0.61 0.00 97 1017.7
20240723134559 18 0.0 0.0 0.00 0.61 0.00 97 1017.4
20240723133102 18 0.0 0.0 0.00 0.61 0.00 98 1017.5
20240723131601 18 0.0 0.0 0.00 0.61 0.00 97 1017.1
20240723130105 18 0.0 0.0 0.00 0.61 0.00 98 1016.9
20240723124558 18 0.0 0.0 0.00 0.61 0.00 98 1016.9
20240723123057 18 0.0 0.0 0.00 0.61 0.00 97 1016.8
20240723121558 18 0.0 0.0 0.00 0.61 0.00 98 1016.4
20240723120058 18 0.0 0.0 0.00 0.61 0.00 98 1016.4
20240723114557 18 0.0 0.0 0.00 0.61 0.00 98 1016.7
20240723113059 18 0.0 0.0 0.00 0.61 0.00 97 1016.5
20240723111600 18 0.0 0.0 0.00 0.61 0.00 97 1016.3
20240723110112 18 0.0 0.0 0.00 0.61 0.00 97 1016.1
20240723104605 18 0.0 0.0 0.00 0.61 0.00 97 1016.1
20240723103115 18 0.0 0.0 0.00 0.61 0.00 97 1016.4
20240723101556 18 0.0 0.0 0.00 0.61 0.00 97 1016.5
20240723100058 18 0.0 0.0 0.00 0.61 0.00 98 1016.3
20240723094603 18 0.0 0.0 0.00 0.61 0.00 97 1016.1
20240723093102 17 0.0 0.0 0.00 0.61 0.00 97 1015.8
20240723091601 17 0.0 0.0 0.00 0.61 0.00 97 1016.0
20240723090056 17 0.0 0.0 0.00 0.61 0.00 97 1015.8
20240723084600 17 0.0 0.0 0.00 0.61 0.00 97 1015.6
20240723083058 18 0.0 0.0 0.00 0.61 0.00 97 1015.6
20240723081556 18 0.0 0.0 0.00 0.61 0.00 97 1015.5
20240723080058 18 0.0 0.0 0.00 0.61 0.00 97 1015.5
20240723074558 18 0.0 0.0 0.00 0.61 0.00 97 1015.6
20240723073058 18 0.0 0.0 0.00 0.61 0.00 97 1015.5
20240723071557 18 0.0 0.0 0.00 0.61 0.00 97 1015.4
20240723070101 18 0.0 0.0 0.00 0.61 0.00 97 1015.5
20240723064607 18 0.0 0.0 0.00 0.61 0.00 97 1015.5
20240723063101 18 0.0 0.0 0.00 0.61 0.00 97 1015.4
20240723061601 18 0.0 0.0 0.00 0.61 0.00 97 1015.4
20240723060101 18 0.0 0.0 0.00 0.61 0.00 97 1015.5
20240723054558 18 0.0 0.0 0.00 0.61 0.00 97 1015.4
20240723053101 18 0.0 0.0 0.00 0.61 0.00 96 1015.3
20240723051608 18 0.0 0.0 0.00 0.61 0.00 96 1015.4
20240723050059 18 0.0 0.0 0.00 0.61 0.00 96 1015.4
20240723044603 18 0.0 0.0 0.00 0.61 0.61 96 1015.3
20240723043058 18 0.0 0.0 0.00 0.61 0.61 96 1015.3
20240723041603 18 0.0 0.0 0.00 0.61 0.61 96 1015.5
20240723040105 18 0.0 0.0 0.00 0.61 0.61 96 1015.3
20240723034605 18 0.0 0.0 0.00 0.61 0.61 96 1015.4
20240723033101 18 0.0 0.0 0.00 0.61 0.61 96 1015.3
20240723031601 18 0.0 0.0 0.00 0.61 0.61 96 1015.2
20240723030103 19 0.0 0.0 0.00 0.61 0.61 96 1015.3
20240723024600 19 0.0 0.0 0.00 0.61 0.61 95 1015.0
20240723023104 19 0.0 0.0 0.00 0.61 0.61 95 1015.0
20240723021611 19 0.0 0.0 0.00 0.61 0.61 95 1015.2
20240723020100 20 0.0 0.0 0.00 0.61 0.61 95 1015.2
20240723014602 20 0.0 0.0 0.00 0.61 0.61 95 1015.2
20240723013127 20 0.0 0.0 0.00 0.61 0.61 95 1015.1
20240723011603 20 0.0 0.0 0.00 0.61 0.61 95 1015.0
20240723010100 20 0.0 0.0 0.00 0.61 0.61 94 1015.1
20240723004600 20 0.0 0.0 0.61 0.61 0.61 93 1015.2
20240723003100 20 0.0 0.0 0.61 0.61 0.61 92 1015.2
20240723001601 20 0.0 0.0 0.61 0.61 0.61 89 1014.6
20240723000057 21 0.0 0.0 0.61 0.61 0.61 85 1014.6
20240722234559 23 0.0 0.0 0.00 0.00 0.00 72 1014.4
20240722233100 25 0.0 0.0 0.00 0.00 0.00 64 1014.7
20240722231600 27 0.0 0.0 0.00 0.00 0.00 70 1014.7
20240722230101 27 0.0 0.0 0.00 0.00 0.00 68 1014.2
20240722224616 27 0.0 0.0 0.00 0.00 0.00 66 1014.2
20240722223100 27 0.0 0.0 0.00 0.00 0.00 66 1014.1
20240722221604 27 0.0 0.0 0.00 0.00 0.00 66 1014.2
20240722220109 27 0.0 0.0 0.00 0.00 0.00 65 1014.1
20240722214625 27 0.0 0.0 0.00 0.00 0.00 64 1014.1
20240722213113 27 0.0 0.0 0.00 0.00 0.00 63 1014.4